Preview of NWS' New Version of Forecast
This preview is not operational and should not be used for support decisions.

Regional Weather Roundup (RWR)

Issued by Philadelphia/Mt Holly (PHI)

                            
000
ASUS41 KPHI 241112
RWRPHI

REGIONAL WEATHER ROUNDUP
NATIONAL WEATHER SERVICE MOUNT HOLLY NJ
700 AM EDT FRI MAY 24 2019

NOTE:  "FAIR" INDICATES FEW OR NO CLOUDS BELOW 12,000 FEET WITH NO
SIGNIFICANT WEATHER AND/OR OBSTRUCTIONS TO VISIBILITY.

 * = STATION DOES NOT REPORT PRECIPITATION (E.G. RAIN, SNOW, ETC.) 
        OR FOG.

NJZ015>026-241200-
SOUTHERN NEW JERSEY
  
CITY           SKY/WX    TMP DP  RH WIND       PRES   REMARKS
POMONA         FAIR      71  60  68 NW13      29.91R                  
WILDWOOD*      FAIR      72  64  76 W8G16     29.94R                  
MILLVILLE      FAIR      71  58  63 NW13G21   29.92R                  
WRIGHTSTOWN    FAIR      69  55  60 NW13G24   29.87R                  
MOUNT HOLLY    FAIR      67  59  75 NW6       29.91R                  
TRENTON        FAIR      68  50  52 W13G20    29.90R                  

$$
NJZ001>014-241200-
NORTHERN NEW JERSEY
  
CITY           SKY/WX    TMP DP  RH WIND       PRES   REMARKS
SUSSEX         FAIR      62  52  69 CALM      29.90R                  
ANDOVER*         N/A     63  51  65 VRB6      29.90R                  
MORRISTOWN     MOSUNNY   64  55  72 NW7       29.87R                  
NEWARK         FAIR      68  53  58 NW9       29.86R                  
TETERBORO      FAIR      67  52  58 NW14G25   29.84R                  
CALDWELL       FAIR      67  50  54 NW10      29.88R                  
SOMERVILLE     FAIR      67  50  54 NW8       29.88R                  
ALLAIRE*       FAIR      69  51  52 W20G28    29.87R                  
TOMS RIVER*    FAIR      68  61  78 NW13G18   29.89R                  

$$
PAZ043-044-047-054-055-060>062-066>071-241200-
EASTERN PENNSYLVANIA
  
CITY           SKY/WX    TMP DP  RH WIND       PRES   REMARKS
PHILADELPHIA   FAIR      69  56  62 NW13      29.93R                  
NORTH PHILA    FAIR      70  53  54 NW14G21   29.93R                  
BLUE BELL*     FAIR      66  55  67 W6        29.94R                  
DOYLESTOWN     FAIR      66  51  58 NW7       29.92R                  
QUAKERTOWN*    SUNNY     66  50  55 VRB6      29.94R                  
PERKASIE*      FAIR      64  50  59 NW13G20   29.94R                  
POTTSTOWN      FAIR      65  51  60 NW9       29.96R                  
LANCASTER      FAIR      67  52  58 NW14      29.97R                  
COATESVILLE    FAIR      66  52  59 NW13G21   29.97R                  
WEST CHESTER   FAIR      64  55  72 W5        29.95R                  
READING        FAIR      66  52  60 W13       29.94R                  
ALLENTOWN      FAIR      67  47  48 NW10      29.93R                  
QN CITY/ALNTWN FAIR      64  50  59 W9        29.95R                  
MOUNT POCONO   FAIR      56  46  69 W20G35    29.91R                  
LEHIGHTON      FAIR      63  46  55 W6        29.94R                  
WILKES BARRE   FAIR      60  47  61 W9        29.95R                  

$$
DEZALL-MDZ008-012-015-019-020-241200-
DELAWARE AND EASTERN MARYLAND
  
CITY           SKY/WX    TMP DP  RH WIND       PRES   REMARKS
WILMINGTON     FAIR      70  54  56 NW10      29.95R                  
DOVER          SUNNY     71  59  65 W14       29.93R                  
CHESWOLD         N/A     72  59  64 NW8G14    29.95R                  
GEORGETOWN     PTSUNNY   73  69  87 VRB5      29.95R                  
EASTON         MOSUNNY   73  63  68 NW10G17   30.00R                  
STEVENSVILLE   FAIR      72  63  73 NW8       29.97R                  
ABERDEEN       MOSUNNY   70  66  88 W7        29.97R                  
PATUXENT       FAIR      76  70  82 W12       29.95                   
OCEAN CITY     FAIR      74  70  87 W6        29.94R                  
WALLOPS ISLAND FAIR      76  72  87 W9        29.94R                  
CAMBRIDGE      PTSUNNY   73  70  88 NW9       29.96R                  
SALISBURY      FAIR      74  72  93 W6        29.95R                  

$$
PAZ001-021-NYZ056-072-MDZ011-DCZ001-241200-
OTHER NEARBY LOCATIONS
  
CITY           SKY/WX    TMP DP  RH WIND       PRES   REMARKS
HARRISBURG     FAIR      66  50  56 NW15      29.97R                  
STATE COLLEGE  SUNNY     57  46  67 NW6       30.04R                  
WILLIAMSPORT   FAIR      61  46  57 W10       29.97R                  
BINGHAMTON     CLOUDY    54  46  74 NW12G18   29.93R                  
NEW YORK CITY  FAIR      66  52  60 W8        29.88R                  
BALTIMORE      FAIR      72  61  68 NW6       29.97R                  
WASHINGTON DC  FAIR      73  60  63 NW13      30.00R                  

$$